Location: Aufkirchen
(47.9603°N, 11.3653°E)
Time: 12:05:24
(UTC+01:00)

Tiros 1 despin weight - All Passes

Search period start: 30 November 2020 00:00
Search period end: 10 December 2020 00:00
Orbit: 593 x 642 km, 48.2° (Epoch: 29 November)

Date Brightness Start Highest point End Pass type
(mag) Time Alt. Az. Time Alt. Az. Time Alt. Az.
30 Nov - 10:50:28 10° S 10:53:28 17° SE 10:56:29 10° E daylight
30 Nov - 12:29:47 10° SW 12:34:21 54° SSE 12:38:56 10° E daylight
30 Nov - 14:11:08 10° W 14:15:51 87° N 14:20:33 10° E daylight
30 Nov - 15:52:47 10° W 15:57:29 74° SSW 16:02:08 10° ESE daylight
30 Nov - 17:34:38 10° W 17:38:39 28° SW 17:42:37 10° SSE visible
01 Dec - 11:05:35 10° SSW 11:09:32 28° SE 11:13:32 10° E daylight
01 Dec - 12:46:02 10° WSW 12:50:42 73° SSE 12:55:23 10° E daylight
01 Dec - 14:27:36 10° W 14:32:19 87° N 14:37:02 10° E daylight
01 Dec - 16:09:14 10° W 16:13:50 55° SSW 16:18:23 10° SE daylight
01 Dec - 17:51:39 10° W 17:54:43 17° SW 17:57:47 10° S visible
02 Dec - 09:43:15 10° SSE 09:45:02 12° SE 09:46:48 10° ESE daylight
02 Dec - 11:21:20 10° SW 11:25:44 43° SSE 11:30:11 10° E daylight
02 Dec - 13:02:25 10° W 13:07:07 88° S 13:11:50 10° E daylight
02 Dec - 14:44:04 10° W 14:48:46 84° SSW 14:53:28 10° ESE daylight
02 Dec - 16:25:46 10° W 16:30:05 37° SSW 16:34:22 10° SE daylight
03 Dec - 09:57:34 10° S 10:01:01 21° SE 10:04:31 10° E daylight
03 Dec - 11:37:25 10° WSW 11:42:01 62° SSE 11:46:40 10° E daylight
03 Dec - 13:18:53 10° W 13:23:35 86° N 13:28:18 10° E daylight
03 Dec - 15:00:30 10° W 15:05:11 67° SSW 15:09:49 10° ESE daylight
03 Dec - 16:42:31 10° W 16:46:14 24° SW 16:49:56 10° SSE daylight
04 Dec - 10:12:59 10° SSW 10:17:09 33° SSE 10:21:21 10° E daylight
04 Dec - 11:53:44 10° WSW 11:58:25 80° SSE 12:03:07 10° E daylight
04 Dec - 13:35:20 10° W 13:40:02 90° NW 13:44:46 10° E daylight
04 Dec - 15:16:59 10° W 15:21:29 47° SSW 15:25:58 10° SE daylight
04 Dec - 16:59:52 10° WSW 17:02:16 14° SW 17:04:39 10° SSW visible
05 Dec - 08:49:53 10° S 08:52:34 15° SE 08:55:15 10° ESE daylight
05 Dec - 10:28:53 10° SW 10:33:22 50° SSE 10:37:55 10° E daylight
05 Dec - 12:10:09 10° W 12:14:51 88° N 12:19:34 10° E daylight
05 Dec - 13:51:46 10° W 13:56:29 78° SSW 14:01:10 10° ESE daylight
05 Dec - 15:33:34 10° W 15:37:42 31° SSW 15:41:48 10° SSE daylight
06 Dec - 09:04:48 10° SSW 09:08:36 25° SE 09:12:26 10° E daylight
06 Dec - 10:45:05 10° WSW 10:49:42 70° SSE 10:54:23 10° E daylight
06 Dec - 12:26:37 10° W 12:31:19 87° N 12:36:01 10° E daylight
06 Dec - 14:08:14 10° W 14:12:51 59° SSW 14:17:26 10° ESE daylight
06 Dec - 15:50:29 10° W 15:53:48 19° SW 15:57:06 10° S daylight
07 Dec - 07:43:14 10° SE 07:44:08 10° SE 07:45:02 10° ESE daylight
07 Dec - 09:20:27 10° SW 09:24:46 40° SSE 09:29:08 10° E daylight
07 Dec - 11:01:26 10° WSW 11:06:07 86° S 11:10:49 10° E daylight
07 Dec - 12:43:04 10° W 12:47:46 86° S 12:52:29 10° ESE daylight
07 Dec - 14:24:44 10° W 14:29:08 40° SSW 14:33:30 10° SE daylight
07 Dec - 16:08:39 10° WSW 16:09:47 11° SW 16:10:54 10° SSW daylight
08 Dec - 07:56:53 10° S 08:00:06 19° SE 08:03:21 10° E daylight
08 Dec - 09:36:30 10° WSW 09:41:02 58° SSE 09:45:38 10° E daylight
08 Dec - 11:17:53 10° W 11:22:34 86° N 11:27:17 10° E daylight
08 Dec - 12:59:30 10° W 13:04:10 70° SSW 13:08:50 10° ESE daylight
08 Dec - 14:41:25 10° W 14:45:17 26° SW 14:49:09 10° SSE daylight
09 Dec - 08:12:10 10° SSW 08:16:11 31° SSE 08:20:16 10° E daylight
09 Dec - 09:52:46 10° WSW 09:57:23 77° SSE 10:02:05 10° E daylight
09 Dec - 11:34:21 10° W 11:39:01 88° N 11:43:44 10° E daylight
09 Dec - 13:15:58 10° W 13:20:30 50° SSW 13:25:02 10° SE daylight
09 Dec - 14:58:35 10° W 15:01:20 16° SW 15:04:04 10° S daylight
